RJA303 OJAQ-OJAI

Flight info

Callsign RJA303
Flight time 0h 31m
Altitude 21000
Route LOXUS M319 LOSIL
Aircraft A20N/M-SDE2E3FGHIRWXY/LB1

Departure

Time 2026-04-21 19:54
Airport King Hussein International Airport (OJAQ)

Arrival

Time 2026-04-21 20:25
Airport Queen Alia International Airport (OJAI)
Time Latitude Longitude Altitude Speed Heading
2026-04-21 19:30 29.61076 35.02039 176 ft 0 kts 107°
2026-04-21 19:44 29.61076 35.02038 176 ft 1 kts 107°
2026-04-21 19:44 29.61079 35.02029 176 ft 1 kts 107°
2026-04-21 19:44 29.61081 35.02021 176 ft 1 kts 107°
2026-04-21 19:44 29.61083 35.02012 176 ft 1 kts 107°
2026-04-21 19:45 29.61086 35.02004 176 ft 1 kts 107°
2026-04-21 19:45 29.61088 35.01995 176 ft 1 kts 109°
2026-04-21 19:45 29.61091 35.01986 175 ft 1 kts 110°
2026-04-21 19:45 29.61094 35.01978 175 ft 1 kts 149°
2026-04-21 19:46 29.61104 35.01975 175 ft 0 kts 199°
2026-04-21 19:49 29.61098 35.01973 175 ft 3 kts 195°
2026-04-21 19:50 29.61077 35.01968 175 ft 6 kts 192°
2026-04-21 19:50 29.60992 35.01941 176 ft 13 kts 195°
2026-04-21 19:50 29.60893 35.01906 176 ft 17 kts 197°
2026-04-21 19:50 29.60763 35.01862 176 ft 21 kts 197°
2026-04-21 19:51 29.60608 35.01809 176 ft 25 kts 196°
2026-04-21 19:51 29.60431 35.01748 176 ft 27 kts 197°
2026-04-21 19:51 29.60257 35.01687 176 ft 26 kts 197°
2026-04-21 19:51 29.60088 35.01628 176 ft 27 kts 197°
2026-04-21 19:52 29.59922 35.01569 176 ft 22 kts 197°
2026-04-21 19:52 29.59843 35.01541 176 ft 16 kts 197°
2026-04-21 19:52 29.59788 35.01462 176 ft 13 kts 283°
2026-04-21 19:52 29.59815 35.01369 176 ft 14 kts 303°
2026-04-21 19:53 29.59911 35.01368 174 ft 0 kts 16°
2026-04-21 19:53 29.59955 35.01383 173 ft 37 kts 17°
2026-04-21 19:53 29.60508 35.01573 175 ft 124 kts 17°
2026-04-21 19:53 29.61515 35.01915 460 ft 166 kts 16°
2026-04-21 19:54 29.62291 35.02188 830 ft 175 kts 13°
2026-04-21 19:54 29.63503 35.02512 1716 ft 186 kts 11°
2026-04-21 19:54 29.64872 35.02841 2272 ft 213 kts
2026-04-21 19:54 29.66411 35.03102 2965 ft 234 kts
2026-04-21 19:55 29.68049 35.03350 3792 ft 245 kts
2026-04-21 19:55 29.69767 35.03617 4893 ft 248 kts
2026-04-21 19:55 29.71511 35.03907 5816 ft 259 kts
2026-04-21 19:55 29.73298 35.04216 6705 ft 267 kts
2026-04-21 19:56 29.75130 35.04590 7756 ft 268 kts 15°
2026-04-21 19:56 29.76904 35.05304 8771 ft 272 kts 21°
2026-04-21 19:56 29.78662 35.06160 9779 ft 277 kts 21°
2026-04-21 19:56 29.80466 35.07024 10689 ft 282 kts 20°
2026-04-21 19:57 29.82307 35.07856 11621 ft 287 kts 18°
2026-04-21 19:57 29.84189 35.08666 12524 ft 291 kts 17°
2026-04-21 19:57 29.86111 35.09471 13414 ft 296 kts 17°
2026-04-21 19:57 29.88063 35.10279 14237 ft 301 kts 16°
2026-04-21 19:58 29.90046 35.11097 15013 ft 305 kts 16°
2026-04-21 19:58 29.92056 35.11927 15804 ft 309 kts 15°
2026-04-21 19:58 29.94097 35.12771 16577 ft 314 kts 15°
2026-04-21 19:58 29.96120 35.13789 17344 ft 324 kts 30°
2026-04-21 19:59 29.97811 35.15564 18081 ft 335 kts 45°
2026-04-21 19:59 29.99315 35.17658 18749 ft 341 kts 47°
2026-04-21 19:59 30.00851 35.19755 19432 ft 343 kts 45°
2026-04-21 19:59 30.02473 35.21794 20104 ft 346 kts 43°
2026-04-21 20:00 30.04171 35.23789 20705 ft 351 kts 41°
2026-04-21 20:00 30.05920 35.25770 20944 ft 353 kts 40°
2026-04-21 20:00 30.07731 35.27785 21016 ft 373 kts 40°
2026-04-21 20:00 30.09653 35.29911 21020 ft 398 kts 40°
2026-04-21 20:01 30.11703 35.32186 21020 ft 417 kts 41°
2026-04-21 20:01 30.13797 35.34524 21018 ft 418 kts 41°
2026-04-21 20:01 30.15884 35.36861 21018 ft 418 kts 41°
2026-04-21 20:01 30.17971 35.39197 21016 ft 418 kts 41°
2026-04-21 20:02 30.20067 35.41523 21022 ft 417 kts 38°
2026-04-21 20:02 30.22341 35.43579 21024 ft 414 kts 30°
2026-04-21 20:02 30.24814 35.45247 21028 ft 410 kts 23°
2026-04-21 20:02 30.27347 35.46749 21025 ft 410 kts 23°
2026-04-21 20:03 30.29880 35.48269 21029 ft 411 kts 24°
2026-04-21 20:03 30.32414 35.49796 21026 ft 410 kts 24°
2026-04-21 20:03 30.34939 35.51320 21031 ft 409 kts 24°
2026-04-21 20:03 30.37470 35.52847 21033 ft 409 kts 24°
2026-04-21 20:04 30.39963 35.54352 21033 ft 409 kts 24°
2026-04-21 20:04 30.42483 35.55872 21031 ft 409 kts 23°
2026-04-21 20:04 30.45011 35.57398 21034 ft 409 kts 24°
2026-04-21 20:04 30.47540 35.58925 21035 ft 409 kts 24°
2026-04-21 20:05 30.50062 35.60449 21034 ft 409 kts 23°
2026-04-21 20:05 30.52587 35.61975 21035 ft 409 kts 23°
2026-04-21 20:05 30.55107 35.63501 21038 ft 409 kts 23°
2026-04-21 20:05 30.57628 35.65027 21037 ft 409 kts 23°
2026-04-21 20:06 30.60148 35.66554 21036 ft 409 kts 23°
2026-04-21 20:06 30.62664 35.68079 21036 ft 408 kts 23°
2026-04-21 20:06 30.65184 35.69607 21035 ft 408 kts 23°
2026-04-21 20:06 30.67704 35.71136 21036 ft 408 kts 23°
2026-04-21 20:07 30.70219 35.72663 21036 ft 408 kts 23°
2026-04-21 20:07 30.72736 35.74193 21044 ft 408 kts 23°
2026-04-21 20:07 30.75251 35.75722 21040 ft 408 kts 23°
2026-04-21 20:07 30.77765 35.77251 21040 ft 408 kts 23°
2026-04-21 20:08 30.80275 35.78821 21037 ft 410 kts 27°
2026-04-21 20:08 30.82622 35.80709 21040 ft 414 kts 35°
2026-04-21 20:08 30.84804 35.82911 21045 ft 415 kts 38°
2026-04-21 20:08 30.86972 35.85125 21042 ft 415 kts 37°
2026-04-21 20:09 30.89148 35.87333 21043 ft 415 kts 37°
2026-04-21 20:09 30.91326 35.89543 21041 ft 415 kts 37°
2026-04-21 20:09 30.93501 35.91752 21042 ft 415 kts 37°
2026-04-21 20:09 30.95674 35.93963 21044 ft 415 kts 37°
2026-04-21 20:10 30.97846 35.96175 21044 ft 415 kts 37°
2026-04-21 20:10 31.00017 35.98389 21025 ft 414 kts 37°
2026-04-21 20:10 31.02176 36.00591 20716 ft 413 kts 37°
2026-04-21 20:10 31.04326 36.02788 20249 ft 409 kts 37°
2026-04-21 20:11 31.06480 36.04985 19406 ft 414 kts 38°
2026-04-21 20:11 31.08669 36.07218 18488 ft 420 kts 38°
2026-04-21 20:11 31.10860 36.09457 17774 ft 417 kts 38°
2026-04-21 20:11 31.13027 36.11676 17015 ft 409 kts 38°
2026-04-21 20:12 31.15206 36.13759 16052 ft 400 kts 32°
2026-04-21 20:12 31.17549 36.15430 15143 ft 391 kts 24°
2026-04-21 20:12 31.20020 36.16694 14255 ft 383 kts 18°
2026-04-21 20:12 31.22462 36.17812 13682 ft 369 kts 19°
2026-04-21 20:13 31.24808 36.18903 13192 ft 358 kts 19°
2026-04-21 20:13 31.27103 36.19972 12612 ft 355 kts 19°
2026-04-21 20:13 31.29398 36.21040 12096 ft 351 kts 19°
2026-04-21 20:13 31.31638 36.22084 11714 ft 343 kts 19°
2026-04-21 20:14 31.33841 36.23109 11247 ft 339 kts 19°
2026-04-21 20:14 31.36020 36.24125 10793 ft 335 kts 19°
2026-04-21 20:14 31.38150 36.25117 10419 ft 329 kts 19°
2026-04-21 20:14 31.40255 36.26100 10281 ft 315 kts 19°
2026-04-21 20:15 31.42226 36.27021 10154 ft 302 kts 19°
2026-04-21 20:15 31.44162 36.27926 9851 ft 297 kts 19°
2026-04-21 20:15 31.46050 36.28807 9697 ft 289 kts 19°
2026-04-21 20:15 31.47938 36.29687 9530 ft 295 kts 19°
2026-04-21 20:16 31.49868 36.30530 9177 ft 296 kts 12°
2026-04-21 20:16 31.51892 36.30702 8808 ft 290 kts 351°
2026-04-21 20:16 31.53812 36.30101 8451 ft 284 kts 340°
2026-04-21 20:16 31.55681 36.29368 8103 ft 281 kts 340°
2026-04-21 20:17 31.57522 36.28652 7760 ft 278 kts 340°
2026-04-21 20:17 31.59351 36.27943 7411 ft 274 kts 340°
2026-04-21 20:17 31.61155 36.27246 7067 ft 272 kts 340°
2026-04-21 20:17 31.62943 36.26556 6728 ft 269 kts 340°
2026-04-21 20:18 31.64120 36.26102 6498 ft 268 kts 340°
2026-04-21 20:18 31.66447 36.25204 6046 ft 264 kts 340°
2026-04-21 20:18 31.68185 36.24533 5712 ft 261 kts 340°
2026-04-21 20:18 31.69897 36.23872 5428 ft 257 kts 340°
2026-04-21 20:19 31.71632 36.23201 5351 ft 261 kts 340°
2026-04-21 20:19 31.73283 36.22566 5345 ft 245 kts 340°
2026-04-21 20:19 31.74801 36.21825 5341 ft 228 kts 321°
2026-04-21 20:19 31.75629 36.20382 5345 ft 207 kts 282°
2026-04-21 20:20 31.75732 36.18769 5346 ft 191 kts 266°
2026-04-21 20:20 31.75595 36.17298 5322 ft 173 kts 262°
2026-04-21 20:20 31.75407 36.15952 5227 ft 161 kts 261°
2026-04-21 20:20 31.75230 36.14706 5122 ft 149 kts 261°
2026-04-21 20:21 31.75061 36.13532 4874 ft 145 kts 261°
2026-04-21 20:21 31.74896 36.12386 4647 ft 135 kts 261°
2026-04-21 20:21 31.74742 36.11312 4352 ft 133 kts 261°
2026-04-21 20:21 31.74588 36.10242 4050 ft 131 kts 261°
2026-04-21 20:22 31.74437 36.09190 3895 ft 135 kts 262°
2026-04-21 20:22 31.74127 36.07037 3536 ft 132 kts 262°
2026-04-21 20:22 31.73972 36.05963 3353 ft 133 kts 262°
2026-04-21 20:23 31.73819 36.04897 3175 ft 132 kts 262°
2026-04-21 20:23 31.73666 36.03831 2999 ft 132 kts 262°
2026-04-21 20:23 31.73513 36.02769 2828 ft 132 kts 262°
2026-04-21 20:23 31.73360 36.01704 2654 ft 132 kts 262°
2026-04-21 20:24 31.73208 36.00645 2486 ft 131 kts 262°
2026-04-21 20:24 31.73065 35.99625 2409 ft 117 kts 261°
2026-04-21 20:24 31.72959 35.98887 2410 ft 74 kts 261°
2026-04-21 20:24 31.72887 35.98396 2408 ft 51 kts 260°
2026-04-21 20:25 31.72826 35.98192 2407 ft 16 kts 201°
2026-04-21 20:25 31.72713 35.98203 2409 ft 18 kts 172°
2026-04-21 20:25 31.72605 35.98240 2408 ft 15 kts 139°
2026-04-21 20:25 31.72600 35.98346 2408 ft 14 kts 79°
2026-04-21 20:26 31.72618 35.98472 2408 ft 17 kts 81°
2026-04-21 20:26 31.72640 35.98618 2410 ft 19 kts 79°
2026-04-21 20:26 31.72665 35.98783 2409 ft 19 kts 80°
2026-04-21 20:26 31.72662 35.98870 2409 ft 12 kts 120°
2026-04-21 20:27 31.72573 35.98906 2410 ft 14 kts 173°
2026-04-21 20:27 31.72515 35.98836 2411 ft 14 kts 258°
2026-04-21 20:27 31.72498 35.98715 2409 ft 16 kts 261°
2026-04-21 20:27 31.72480 35.98586 2408 ft 15 kts 260°
2026-04-21 20:28 31.72469 35.98513 2408 ft 3 kts 260°
2026-04-21 20:28 31.72470 35.98503 2408 ft 1 kts 280°
2026-04-21 20:28 31.72495 35.98490 2408 ft 0 kts 358°
2026-04-21 20:28 31.72516 35.98486 2408 ft 4 kts 351°
2026-04-21 20:29 31.72529 35.98483 2410 ft 0 kts 351°